www.pogodaiklimat.ru

Погода и климат >> Архив погоды >> Мексика >> Тустла-Гутьеррес


ПОГОДА в Тустла-Гутьерресе

  • Прогноз погоды в Тустла-Гутьерресе
  • Монитор погоды в Тустла-Гутьерресе

АРХИВ ПОГОДЫ в Тустла-Гутьерресе

Время (UTC), дата Ветер
(напр.,м/с)
 
Видим.   Явления Облачность Т
(С)
Тd
(С)
f
(%)
Тe
(С)
Тes
(С)
Комфортность P
(гПа)
Po
(гПа)
Тmin
(С)
Tmax
(С)
R
(мм)
R24
(мм)
S
(см)
06 14.01 Ю 1 15 км ясно +20.6 +15.9 74 +25 +25 комфорт 1017.0 953.0 +28.4
09 14.01 СЗ 1 15 км ясно +19.5 +17.1 86 +23 +23 комфорт 1017.3 953.0
12 14.01 З 1 15 км ясно +18.8 +15.6 82 +21 +21 комфорт 1017.9 953.3 +18.6 +28.4
15 14.01 СЗ 1 15 км 5/0 2000 м
[Ac und]
+21.3 +15.5 70 +25 +29 комфорт 1019.8 954.9
18 14.01 СЗ 1 15 км 3/1 750 м
[Cu hum Ac trans]
+27.7 +16.4 50 +31 +44 душно 1017.4 954.0 +18.4 +28.5
21 14.01 СЗ 3 15 км 8/3 750 м
[Frnb Ac und]
+25.7 +15.8 54 +29 +31 душно 1015.0 951.0
00 15.01 З 1 15 км 8/3 750 м
[Cu hum Ac und]
+22.9 +16.6 68 +28 +28 душно 1015.0 951.3 +18.4 +28.7
03 15.01 З 1 15 км 8/3 750 м
[Cu hum Ac und]
+22.9 +16.6 68 +28 +28 душно 1015.0 951.3 +18.4 +28.7
06 15.01 З 1 15 км 6/0 600 м
[Ac und]
+21.2 +15.4 69 +24 +24 комфорт 1016.1 952.9 +18.4 +28.7
09 15.01 З 1 15 км 6/0 600 м
[Ac und]
+21.2 +15.4 69 +24 +24 комфорт 1016.1 952.9 +18.4 +28.7
12 15.01 З 1 15 км 3/0 2000 м
[Ac und]
+20.1 +16.9 82 +24 +24 комфорт 1017.4 952.9 +19.9 +28.7
15 15.01 СЗ 3 15 км 4/1 750 м
[Cu hum Ac trans]
+22.5 +16.2 68 +27 +30 душно 1019.1 954.5
18 15.01 З 3 15 км 4/1 840 м
[Cu hum Ac As]
+25.7 +17.1 59 +30 +38 душно 1017.6 953.2 +19.9 +26.3
21 15.01 СЗ 3 15 км 8/3 840 м
[Cu med, cong Ac As]
+24.5 +18.1 68 +29 +31 душно 1014.1 950.2
00 16.01 СЗ 3 15 км 8/3 840 м
[Cu med, cong Ac As]
+24.5 +18.1 68 +29 +29 душно 1014.1 950.2
03 16.01 ЮЗ 2 15 км 1/1 660 м
[Cu hum]
+21.1 +17.5 80 +25 +25 комфорт 1016.5 952.6
06 16.01 З 3 15 км 4/1 630 м
[Cu hum Ac As]
+20.7 +17.4 81 +25 +25 комфорт 1016.8 952.7 +19.9 +26.7
09 16.01 З 3 15 км 8/4 400 м
[Cu hum Ac As]
+19.7 +17.8 89 +23 +23 комфорт 1017.5 953.1
12 16.01 З 2 15 км в посл. час дождь {морось} 4/3 300 м
[Cu hum Ac trans]
+19.7 +17.3 86 +23 +23 комфорт 1017.9 953.2 0.0
15 16.01 ЮВ 1 15 км 8/0
[Ac As]
+21.8 +18.4 81 +27 +29 душно 1019.6 954.8
18 16.01 ЮВ 1 15 км 5/5 900 м
[Cu med, cong]
+27.6 +19.6 62 +33 +42 очень
душно
1018.1 953.6 +19.3 +28.2
21 16.01 СЗ 2 15 км 3/3 900 м
[Cu med, cong]
+26.6 +20.7 70 +33 +38 очень
душно
1013.2 949.4
00 17.01 СЗ 3 15 км 1/1 600 м
[Frnb]
+23.2 +19.3 79 +30 +30 очень
душно
1013.1 949.6 +19.3 +30.2
03 17.01 СВ 1 15 км 1/1 750 м
[Frnb]
+22.4 +18.9 81 +28 +28 душно 1015.4 951.9
06 17.01 З 1 15 км 3/0 2000 м
[Ac trans]
+21.2 +18.4 84 +25 +25 комфорт 1015.9 952.1 +19.3 +30.2
09 17.01 З 1 15 км ясно +19.8 +18.0 89 +24 +24 комфорт 1015.9 951.8
12 17.01 штиль 0 15 км 5/5 900 м
[Sc]
+19.3 +17.3 88 +21 +21 комфорт 1016.7 952.2 +19.1 +30.2
15 17.01 Ю 2 15 км 3/1 700 м
[Cu hum Cc]
+22.9 +16.9 69 +28 +33 душно 1018.8 954.2
18 17.01 З 2 15 км 3/1 800 м
[Cu med, cong Ci fib]
+27.9 +16.0 48 +31 +43 душно 1017.0 952.7 +19.1 +28.9
21 17.01 С 3 15 км 9/1 840 м
[Cu med, cong Ac As Ci fib]
+24.9 +17.2 62 +29 +32 душно 1014.0 950.2
00 18.01 З 3 15 км 4/1 600 м
[Cu hum Ci fib]
+22.7 +17.7 73 +28 +28 душно 1013.6 950.1 +19.1 +28.9
03 18.01 С 2 15 км 1/0 1500 м
[Ac trans]
+21.7 +17.1 75 +26 +26 душно 1015.5 951.9
06 18.01 З 2 15 км 3/1 800 м
[Cu hum Cc]
+20.1 +16.8 81 +24 +24 комфорт 1016.8 952.8 +19.1 +28.9
09 18.01 З 1 15 км 1/0
[Cc]
+19.3 +15.9 81 +22 +22 комфорт 1016.2 951.9
12 18.01 Ю 1 15 км 1/0
[Cc]
+18.1 +15.3 84 +19 +19 1016.6 951.9 +17.3
15 18.01 СЗ 1 15 км 1/1 840 м
[St]
+22.2 +15.5 66 +26 +32 душно 1018.0 953.2
18 18.01 СВ 2 15 км 1/1 1440 м
[Cu hum]
+27.4 +15.7 49 +30 +43 жарко 1016.0 951.6 +17.0 +29.2
21 18.01 СЗ 2 15 км ясно +30.6 +15.4 40 +33 +40 душно 1010.7 947.2
00 19.01 СЗ 3 15 км ясно +24.4 +17.3 65 +28 +28 душно 1010.3 947.2 +17.0 +31.6
03 19.01 ЮЗ 2 15 км ясно +21.8 +17.6 77 +26 +26 душно 1012.3 949.2
06 19.01 СЗ 1 15 км ясно +20.2 +16.9 81 +24 +24 комфорт 1013.6 950.2 +17.0 +31.6
09 19.01 З 1 15 км ясно +18.4 +15.9 85 +20 +20 1012.7 948.8
12 19.01 З 1 15 км ясно +16.8 +15.2 90 +18 +18 1013.3 948.8 +15.2 +31.6
15 19.01 В 2 15 км ясно +20.6 +16.8 79 +25 +30 комфорт 1015.4 950.6
18 19.01 В 1 15 км 4/0
[Cc]
+28.6 +17.9 52 +33 +48 очень
душно
1013.7 949.3 +15.2 +29.3
21 19.01 Ю 3 15 км 3/1 720 м
[Cu med, cong Cc]
+34.4 +16.3 34 +37 +42 очень
душно
1008.7 945.3
00 20.01 СЗ 9 15 км 4/0
[Cc]
+28.0 +19.5 60 +34 +34 очень
душно
1008.8 946.1 +15.2 +35.4
03 20.01 З 6 15 км 4/4 600 м
[Cu hum]
+23.8 +18.6 73 +28 +28 душно 1013.7 951.0
06 20.01 З 2 15 км 3/3 600 м
[Cu hum]
+22.1 +17.0 73 +27 +27 душно 1015.6 952.6 +35.4

 

Местоположение метеостанции Тустла-Гутьеррес (Мексика): широта 16.75 долгота -93.13 высота над уровнем моря 576 м.

В архиве по умолчанию представлена погода в Тустла-Гутьерресе за последнюю неделю. Архивные данные за месяц целиком и за предыдущие месяцы, начиная с января 2011 года, Вы можете получить, выбрав интересующий диапазон дат из раскрывающегося списка и нажав кнопку "Ввод!".


*Определитесь, кто Вы:
робот инопланетянин человек

Внимание! Время в таблицах - всемирное. Для получения местного времени необходимо прибавить поправку, которая равна -6 ч.

Смотрите также архив погоды в соседних городах и на ближайших метеорологических станциях:

Погода в Сан-Кристобаль-де-лас-Касасе (Мексика) (53 км)
Погода в Арриаге (Мексика) (100 км)
Погода в Комитане (Мексика) (120 км)
Погода в Вильяэрмосе (Мексика) (138 км)
Погода в Коацакоалькосе (Мексика) (205 км)
Погода в Тапачуле (Мексика) (224 км)
Погода в Салина-Крусе (Мексика) (228 км)
Погода в Уэуэтенанго (Гватемала) (239 км)
Погода во Флоресе (Гватемала) (347 км)
Погода в Гватемале (Гватемала) (370 км)

Пояснения к столбцам:

Ветер - указаны скорость ветра в м/с - средняя за 10 мин, порывы в срок и между сроками (в фигурных скобках) и направление, откуда дует ветер: С - северный, СВ - северо-восточный, В - восточный, ЮВ - юго-восточный, Ю - южный, ЮЗ - юго-западный, З - западный, СЗ - северо-западный.
Видимость - горизонтальная дальность видимости в метрах или километрах. При видимости от 1 до 10 км при отсутствии осадков обычно наблюдается дымка, при ухудшении видимости до 1 км и менее - туман. В сухую погоду видимость может ухудшаться дымом, пылью или мглою.
Явления - указаны атмосферные явления, наблюдавшиеся в срок или в последний час перед сроком; фигурными скобками обозначены явления, наблюдавшиеся между сроками (за 1-3 часа до срока); квадратными скобками обозначены град или гололедные отложения с указанием их диаметра в мм.
Облачность - указаны через наклонную черту общая и нижняя облачность в баллах и высота нижней границы облаков в метрах; квадратными скобками обозначены формы облаков: Ci - перистые, Cs - перисто-слоистые, Cc - перисто-кучевые, Ac - высококучевые, As - высокослоистые, Sc - слоисто-кучевые, Ns - слоисто-дождевые, Cu - кучевые, Cb - кучево-дождевые. Подробнее классификацию облаков см. в Атласе облаков (PDF).
T - Температура воздуха - температура, измеренная на высоте 2 м над землей.
Td - Температура точки росы - температура, при понижении до которой содержащийся в воздухе водяной пар достигнет насыщения.
f - Относительная влажность воздуха - влажноcть воздуха, измеренная на высоте 2 м над землей.
Te - Эффективная температура - температура, которую ощущает одетый по сезону человек в тени. Характеристика душности погоды. При расчете учитывается влияние влажности воздуха и скорости ветра на теплоощущения человека.
Tes - Эффективная температура на солнце - температура, которую ощущает человек, с поправкой на солнечный нагрев. Характеристика знойности погоды. Зависит от высоты солнца над горизонтом, облачности и скорости ветра. Ночью, в пасмурную погоду, а также при ветре 12 м/с и более поправка равна нулю.
P - Атмосферное давление - приведенное к уровню моря атмосферное давление.
Po - Атмосферное давление - измеренное на уровне метеостанции атмосферное давление.
Tmin - Минимальная температура - минимум температуры воздуха на высоте 2 м над землей.
Tmax - Максимальная температура - максимум температуры воздуха на высоте 2 м над землей.
R - Количество осадков - Количество выпавших осадков за период времени, мм. При наведении курсора мыши на число - период времени, за который выпало указанное количество осадков.
R24 - Количество осадков - Количество выпавших осадков за 24 часа, мм.
S - Снежный покров - Высота снежного покрова, см. При наведении курсора мыши на число - состояние снежного покрова и степень покрытия местности в баллах.